Location: Cucq
(50.4773°N, 1.6202°E)
Time: 07:11:15
(UTC+00:00)

Cosmos 2026 Rocket - Pass Details

Date: 07 August 2020
Orbit: 940 x 1000 km, 82.9° (Epoch: 26 September)

Event Time Altitude Azimuth Distance (km) Brightness Sun altitude
Rises 01:39:30 0° 348° (NNW) 3,617 7.8 -19.7°
Reaches altitude 10° 01:41:59 10° 346° (NNW) 2,670 7.0 -19.5°
Maximum altitude 01:48:01 68° 265° (W) 1,020 3.9 -19.1°
Enters shadow 01:51:04 31° 192° (SSW) 1,618 4.6 -18.8°
